Temperature
34 34 33 33 34 33 33 33 33 33 34 34 32 31 31 31 31 30 29 28 27 26 25 24 23 22 21 20 20 19 19 19 19 19 18 18 18 18 18 18 18 18 18 18
34 33 34 35 35 34 34 33 33 33 35 34 32 31 31 31 32 31 30 29 28 26 25 24 23 22 21 20 20 20 19 19 19 19 19 19 18 18 18 18 18 18 18 18
33 34 35 35 34 34 34 34 33 33 34 34 32 30 30 31 32 31 31 30 29 27 26 24 23 23 22 21 20 20 20 20 19 19 19 19 19 18 18 18 18 18 18 18
34 35 35 35 34 34 33 35 35 34 33 32 32 28 28 30 31 31 31 30 29 28 26 25 24 23 22 21 21 21 20 20 19 19 19 19 19 19 19 18 18 18 18 18
34 34 34 34 34 34 34 35 35 34 33 32 31 30 28 30 30 31 31 30 30 28 27 26 25 24 23 22 21 21 20 20 20 20 19 19 19 19 19 18 18 18 18 18
34 35 35 35 35 35 35 35 34 34 33 31 32 30 29 29 30 31 31 31 30 29 28 26 25 24 23 22 22 21 21 21 20 20 20 19 19 19 19 19 18 18 18 18
33 34 35 35 34 35 35 33 31 30 30 29 31 31 30 30 32 32 32 31 30 29 28 26 25 24 24 23 22 22 21 21 21 20 20 20 20 19 19 19 18 18 18 18
32 32 34 35 34 34 34 33 31 29 28 28 28 29 30 32 33 33 32 31 30 29 28 27 26 25 24 23 23 22 21 21 21 21 20 20 20 19 19 19 19 18 18 18
32 32 35 35 35 35 34 33 34 31 30 29 27 29 31 32 32 33 32 31 31 29 28 27 26 25 24 24 23 22 22 21 21 21 20 20 20 19 19 19 19 18 18 18
33 32 33 35 35 35 34 34 33 32 29 29 29 29 29 30 31 32 32 31 30 30 28 28 27 26 25 24 23 23 22 22 21 21 20 20 20 20 19 19 19 19 18 18
33 32 32 33 33 33 34 33 33 32 31 30 29 28 29 29 30 31 32 31 30 30 29 28 27 26 25 24 23 23 22 22 21 21 21 20 20 19 19 19 19 19 19 18
32 32 31 32 34 34 34 34 33 31 30 31 30 28 31 30 31 31 31 30 30 29 29 28 27 26 25 24 24 23 22 21 21 21 21 20 20 19 19 19 19 19 18 18
31 30 29 31 32 33 33 33 34 34 32 31 30 29 31 31 31 32 31 30 30 29 28 28 27 26 25 25 24 23 22 22 21 21 21 20 20 20 19 19 19 19 18 18
30 30 30 30 31 32 32 32 33 33 32 31 31 30 31 31 31 31 31 30 29 29 28 27 27 26 25 25 24 23 23 22 21 21 21 20 20 20 19 19 19 19 18 18
30 29 30 31 32 32 32 32 33 32 32 31 31 31 31 31 31 31 30 30 29 28 27 27 26 25 25 24 24 23 23 22 22 21 21 20 20 20 19 19 19 19 18 18
29 28 29 29 31 31 32 32 32 32 32 32 31 31 31 31 31 30 29 29 28 27 27 26 26 25 24 24 23 23 23 22 22 21 21 21 20 20 19 19 19 18 18 18
28 27 28 28 30 30 30 31 31 32 32 32 30 30 31 30 30 29 28 28 27 27 26 25 25 24 24 23 23 23 22 22 22 21 21 21 20 20 19 19 19 18 18 18
27 26 27 28 28 27 29 31 31 31 31 31 30 30 30 29 28 28 27 27 26 26 25 25 24 24 23 23 23 22 22 22 21 21 21 20 20 19 19 19 18 18 18 18
27 26 26 27 27 28 29 30 30 30 29 30 30 29 29 29 28 27 26 25 25 25 24 24 24 24 23 23 22 22 21 21 21 21 20 20 19 19 19 18 18 18 18 17
27 26 26 26 26 26 28 30 30 30 28 28 28 28 28 28 28 27 25 24 24 24 23 23 23 23 23 22 22 21 21 21 21 20 20 20 19 19 19 18 18 18 17 17
26 26 25 26 26 26 28 29 29 27 26 27 27 26 26 26 25 24 24 23 23 23 23 23 23 22 22 22 21 21 20 20 20 20 20 19 19 19 18 18 18 17 17 16
26 26 25 25 25 25 27 27 26 25 25 25 25 25 24 24 24 24 23 22 22 22 22 22 22 21 21 21 21 20 20 20 19 19 19 19 18 18 17 17 17 17 16 16
26 26 26 25 25 25 25 25 24 24 24 24 24 24 23 23 23 23 22 22 21 21 21 21 21 21 20 20 20 20 20 19 19 18 18 18 18 17 17 17 17 16 16 15
26 25 25 24 24 24 24 24 23 23 23 23 23 23 23 22 22 22 21 21 21 21 20 20 20 20 19 19 19 19 19 19 18 18 18 17 17 17 16 16 16 16 15 15
24 24 24 23 23 23 23 23 23 22 22 22 22 22 22 22 21 21 20 20 20 20 20 19 19 19 19 19 18 18 18 18 17 17 17 17 16 16 16 16 16 15 15 15
23 22 22 22 22 22 22 21 22 21 21 21 21 21 21 21 20 20 20 19 19 19 19 19 19 18 18 18 18 18 17 17 17 16 16 16 16 16 15 15 15 15 15 15
Wind_Speed
13 12 9 7 8 5 4 5 2 5 7 6 7 10 11 11 11 12 11 12 12 11 12 11 10 10 9 8 7 5 4 4 3 2 2 2 2 2 2 2 3 3 2 2
13 13 11 9 8 7 7 4 2 4 5 3 5 4 7 10 9 10 11 12 13 13 12 12 11 10 10 8 7 6 4 4 3 3 2 2 2 2 3 2 3 3 2 2
16 11 10 10 9 8 8 5 4 3 3 4 5 4 4 9 9 10 12 13 14 15 14 13 12 10 10 9 8 6 5 5 4 4 3 2 2 1 1 2 2 2 2 2
15 12 10 10 9 9 9 5 4 4 5 3 3 3 6 10 11 10 10 12 14 15 15 14 13 11 11 10 9 7 6 5 4 3 2 3 3 2 2 2 2 3 2 1
14 13 12 12 10 9 7 7 7 7 7 6 7 3 4 8 10 10 10 11 13 15 15 14 14 12 11 11 10 9 7 5 4 3 2 2 2 2 2 3 3 2 2 2
15 12 12 12 11 11 7 7 8 9 8 9 7 4 5 7 10 11 11 12 13 14 14 13 13 12 11 11 11 10 9 6 5 4 3 3 2 1 2 2 2 2 2 2
17 16 14 12 13 11 10 10 7 7 6 6 7 3 5 7 9 13 14 12 14 15 15 14 13 13 12 12 11 10 10 8 6 6 4 4 3 3 2 2 2 1 2 2
17 16 16 14 14 11 12 12 9 7 5 5 5 4 3 7 7 10 14 14 15 15 14 14 13 12 12 12 11 11 11 9 8 6 4 3 3 3 2 2 1 2 1 2
12 14 14 15 15 15 13 12 12 10 9 6 3 4 4 6 8 10 12 12 14 14 14 14 14 13 12 12 11 11 11 9 8 8 6 5 4 2 2 2 2 1 1 2
13 11 13 14 13 15 14 11 8 7 6 8 6 4 1 5 7 10 12 12 13 13 13 13 14 14 12 11 10 9 10 9 8 7 7 7 6 4 3 2 2 2 2 2
16 12 12 13 14 15 14 14 10 8 8 7 4 1 2 5 5 6 10 11 11 13 13 13 13 13 12 12 12 10 9 9 8 6 5 5 6 5 4 3 2 2 1 1
12 11 12 13 13 14 15 15 13 10 8 8 6 3 4 5 6 8 10 11 11 12 12 13 13 12 12 12 12 11 10 9 8 7 6 6 5 5 4 4 3 2 2 2
6 8 11 13 13 13 14 14 15 13 10 10 8 3 4 3 2 6 10 10 9 10 10 10 11 11 10 10 10 11 10 10 9 8 7 6 5 4 4 4 3 3 2 2
4 8 12 13 10 10 12 14 14 15 10 9 7 4 4 2 3 5 8 9 9 9 7 8 8 9 9 9 9 9 10 10 10 9 8 7 6 5 4 4 3 3 3 3
6 10 13 16 14 11 12 13 15 15 13 9 6 4 3 2 2 5 6 7 8 7 7 7 8 7 7 8 9 9 9 8 9 9 9 8 6 6 5 4 3 3 2 3
5 8 11 14 14 14 14 14 14 13 12 11 9 5 3 3 3 4 5 6 5 5 5 6 6 8 7 7 7 8 8 8 7 8 8 7 7 6 5 5 4 3 3 2
6 7 10 12 13 14 15 13 12 12 10 9 7 4 2 2 5 5 6 5 3 3 3 3 4 6 6 7 7 8 8 8 8 7 7 8 7 7 6 6 5 4 3 3
6 6 7 11 12 14 10 7 10 10 7 3 3 2 1 4 6 6 6 4 3 2 2 2 3 5 6 8 8 6 7 8 8 8 8 8 8 7 6 5 5 4 3 3
8 7 8 10 13 12 10 8 8 7 2 4 3 3 3 3 4 5 5 5 4 3 3 1 1 4 5 6 7 7 7 7 7 8 7 7 7 7 7 6 5 4 4 3
11 8 9 10 11 11 5 5 7 8 5 4 5 5 5 3 1 1 5 4 3 3 2 2 1 2 4 5 6 7 7 7 7 7 7 7 7 7 6 6 5 5 4 4
11 11 12 13 11 8 5 5 5 6 1 5 6 6 6 4 3 3 4 4 3 3 3 2 1 1 3 5 6 6 6 6 5 5 6 7 6 6 6 5 5 5 5 4
10 10 11 11 12 7 5 4 3 3 5 5 6 6 6 5 4 4 4 4 4 4 4 3 2 2 3 4 6 5 5 4 4 5 6 6 6 6 6 6 5 5 5 5
7 4 4 3 2 3 5 4 5 5 5 5 5 5 5 5 4 4 3 3 3 3 2 2 2 2 2 3 4 5 4 4 5 5 5 5 5 4 5 6 6 5 5 5
4 2 4 3 1 2 4 4 4 4 5 5 5 4 4 4 4 3 3 3 2 2 1 1 1 1 2 3 3 3 4 5 5 5 5 5 4 4 4 4 4 4 5 5
5 4 4 4 2 3 3 5 5 5 6 6 6 5 4 4 4 3 2 2 2 1 1 1 1 1 2 2 3 3 4 5 5 5 5 5 5 5 4 3 2 3 2 3
4 4 4 3 4 4 4 5 5 4 4 4 5 5 4 4 5 4 3 2 1 0 1 1 1 1 2 3 3 3 3 4 5 5 5 5 5 5 5 5 2 4 2 4
Wind_Direction
237 241 245 233 237 235 253 262 183 152 148 160 150 149 163 171 174 167 166 164 161 158 155 152 154 151 148 143 141 142 145 140 147 148 163 169 171 175 162 151 134 135 157 155
238 239 244 249 237 241 240 248 215 168 149 180 135 137 169 179 185 171 166 166 162 157 154 155 157 155 153 148 147 149 151 151 154 162 176 176 172 183 158 127 119 143 164 188
238 239 237 240 246 250 253 233 227 221 199 199 171 163 207 191 183 175 172 170 164 161 159 159 163 161 158 153 155 157 153 153 162 169 176 177 148 140 101 127 135 156 168 192
242 243 244 244 243 252 264 262 251 252 256 254 230 164 211 203 181 181 177 170 164 162 159 161 164 164 163 157 155 147 146 147 152 164 178 174 160 161 161 155 147 144 144 171
240 236 239 246 245 247 257 269 265 267 262 252 228 186 209 209 181 176 171 175 166 161 160 163 165 164 163 160 157 152 146 147 151 164 168 176 164 166 154 140 136 144 146 147
247 241 236 241 244 247 253 254 261 268 271 266 257 220 172 186 188 172 174 181 164 159 158 160 163 159 162 161 158 156 150 155 158 168 172 169 181 171 129 134 140 169 159 146
239 240 234 238 242 234 236 246 253 259 261 270 305 286 153 179 184 165 164 168 160 156 156 161 167 160 162 162 160 157 154 161 168 173 177 169 183 175 162 174 167 174 138 129
228 229 223 223 233 239 233 245 251 261 276 292 327 299 161 146 139 147 152 157 156 156 158 162 160 160 165 164 160 158 158 164 170 173 171 165 170 183 182 181 173 142 136 121
238 232 224 219 225 240 241 240 254 259 253 258 229 216 173 137 141 144 142 147 155 157 158 161 163 166 167 164 161 161 159 165 171 173 167 162 164 167 161 149 169 150 122 138
253 255 237 220 218 231 244 252 263 263 276 276 224 199 161 147 172 157 147 151 153 158 165 168 166 167 165 162 157 157 159 163 169 171 173 168 169 169 172 157 126 116 110 94
245 255 246 226 220 229 226 240 251 271 275 277 281 295 131 182 183 169 151 150 156 158 161 164 163 162 160 160 160 160 160 163 165 167 164 157 159 166 164 159 153 145 134 135
237 252 253 237 234 235 241 241 239 244 261 276 279 254 219 194 191 164 146 144 156 155 158 159 159 157 161 165 165 163 163 165 166 166 159 155 155 158 162 153 145 147 146 144
251 250 251 240 229 223 236 246 252 250 247 252 261 191 187 157 173 144 130 131 137 143 148 151 154 157 160 161 161 164 168 168 167 164 157 155 157 156 155 146 148 144 141 131
271 248 251 249 240 228 233 240 249 256 257 256 251 192 181 181 144 122 123 136 140 138 141 150 148 153 156 157 157 160 165 167 166 164 162 161 160 158 149 144 141 141 142 140
254 246 251 263 269 256 245 242 242 247 257 258 257 219 209 207 128 110 121 135 130 135 146 159 156 147 148 153 161 164 166 165 165 165 166 164 162 155 151 148 144 140 143 138
244 263 259 258 264 266 256 245 251 249 251 250 251 256 208 179 124 102 99 105 121 145 155 153 151 150 154 159 166 166 164 162 159 164 163 156 156 157 157 157 154 143 135 122
236 248 257 254 253 259 254 253 256 257 254 253 254 262 207 147 104 107 98 98 101 103 131 146 159 158 164 167 168 169 168 164 165 165 163 161 165 165 167 167 155 147 141 127
249 259 254 255 254 250 252 269 270 263 258 289 288 299 352 86 94 92 86 76 63 52 44 142 168 169 173 167 164 164 169 169 170 171 170 169 171 169 165 163 162 157 152 144
229 240 248 253 249 246 249 249 255 255 273 353 353 357 8 58 103 101 75 68 56 47 26 21 172 172 164 163 162 162 170 172 173 174 172 170 170 170 172 171 168 161 156 147
213 214 239 250 255 251 253 264 264 251 230 1 359 11 13 10 266 81 45 50 40 34 32 29 49 140 155 159 156 164 172 176 181 178 171 167 170 171 172 168 163 159 158 162
209 213 229 246 251 253 310 316 286 249 253 17 15 15 15 19 21 36 37 40 33 34 31 47 66 90 146 150 152 165 173 182 178 167 163 164 168 168 165 160 162 160 162 163
215 219 224 238 246 245 344 325 311 7 34 23 22 27 28 28 32 34 41 30 24 26 28 37 51 66 113 136 149 163 172 169 155 159 162 163 164 175 169 161 165 166 167 170
229 246 248 246 246 52 16 31 31 19 22 21 21 21 18 6 9 28 31 17 12 20 25 37 55 69 100 122 144 159 149 139 144 151 156 157 164 166 160 172 175 173 178 193
222 250 259 273 147 27 4 24 16 17 9 6 10 8 1 349 342 352 356 349 344 357 22 44 99 117 116 123 144 150 148 142 148 160 160 163 168 172 166 174 182 189 196 202
325 319 275 254 283 314 341 348 348 7 14 7 348 347 340 340 329 322 319 319 311 333 63 80 124 134 134 128 138 142 140 150 163 167 165 170 177 177 164 165 162 190 194 213
319 323 300 300 341 324 330 347 344 334 342 344 341 337 331 325 314 312 312 309 305 105 107 110 111 124 134 137 137 133 138 160 169 176 177 183 185 174 174 174 154 58 81 102
Height
1483 1484 1486 1484 1481 1483 1485 1487 1489 1486 1480 1485 1492 1497 1498 1500 1503 1507 1511 1515 1520 1524 1528 1531 1533 1535 1537 1538 1538 1539 1540 1540 1541 1542 1543 1543 1544 1545 1546 1546 1547 1547 1547 1548
1483 1485 1479 1476 1477 1481 1482 1487 1488 1484 1479 1484 1491 1496 1495 1498 1500 1503 1507 1512 1516 1521 1526 1529 1532 1534 1536 1537 1538 1539 1539 1540 1540 1541 1542 1543 1544 1545 1545 1546 1546 1546 1547 1547
1483 1479 1474 1476 1477 1480 1481 1484 1486 1485 1480 1482 1490 1502 1499 1496 1497 1501 1504 1508 1513 1517 1522 1526 1530 1533 1535 1536 1537 1538 1538 1539 1540 1541 1542 1544 1544 1545 1545 1545 1546 1546 1546 1547
1477 1473 1474 1476 1478 1479 1485 1474 1476 1480 1487 1494 1492 1517 1506 1496 1495 1497 1500 1504 1508 1514 1519 1524 1528 1531 1533 1534 1536 1537 1538 1539 1539 1540 1542 1543 1543 1544 1545 1545 1545 1546 1546 1546
1477 1473 1475 1478 1476 1476 1478 1472 1474 1478 1485 1494 1493 1507 1509 1494 1497 1495 1497 1502 1506 1511 1516 1521 1525 1528 1531 1533 1535 1536 1536 1537 1538 1540 1541 1542 1543 1544 1545 1545 1545 1546 1546 1546
1472 1470 1470 1472 1471 1472 1471 1474 1476 1479 1486 1506 1493 1501 1510 1497 1493 1490 1495 1499 1503 1508 1513 1518 1523 1526 1529 1532 1534 1535 1535 1536 1538 1539 1540 1541 1542 1543 1544 1544 1545 1545 1545 1545
1478 1472 1469 1470 1474 1472 1474 1485 1502 1510 1514 1517 1495 1497 1499 1485 1481 1484 1489 1495 1500 1506 1511 1517 1521 1524 1527 1530 1532 1534 1534 1536 1537 1538 1539 1541 1541 1542 1543 1543 1544 1544 1545 1545
1485 1483 1469 1468 1472 1475 1475 1482 1505 1525 1529 1519 1507 1508 1491 1476 1480 1483 1487 1492 1498 1504 1509 1514 1518 1522 1525 1528 1530 1532 1533 1535 1536 1537 1539 1540 1541 1542 1543 1543 1544 1544 1544 1544
1478 1479 1463 1463 1466 1469 1476 1479 1477 1494 1505 1517 1518 1503 1489 1479 1481 1483 1486 1491 1496 1502 1507 1512 1516 1520 1523 1526 1528 1530 1532 1534 1535 1537 1538 1539 1540 1541 1542 1543 1543 1543 1543 1543
1468 1478 1466 1462 1465 1466 1469 1472 1480 1492 1513 1523 1513 1506 1502 1490 1487 1483 1485 1490 1496 1501 1506 1510 1514 1518 1521 1524 1526 1529 1531 1532 1534 1536 1537 1538 1539 1540 1541 1542 1542 1542 1542 1542
1466 1476 1472 1466 1470 1473 1473 1476 1479 1485 1490 1509 1521 1516 1490 1489 1485 1485 1485 1489 1494 1499 1503 1507 1512 1516 1519 1522 1525 1527 1529 1531 1533 1535 1536 1537 1538 1539 1540 1540 1541 1541 1541 1540
1467 1472 1478 1470 1462 1462 1466 1470 1476 1493 1496 1493 1505 1511 1482 1483 1480 1482 1484 1489 1493 1497 1501 1505 1509 1514 1518 1521 1523 1525 1528 1530 1531 1533 1535 1536 1537 1538 1539 1539 1540 1540 1539 1539
1470 1477 1490 1485 1476 1467 1468 1468 1468 1471 1480 1490 1500 1504 1481 1480 1480 1480 1484 1489 1493 1496 1500 1504 1508 1512 1516 1519 1522 1524 1526 1529 1530 1532 1533 1535 1536 1537 1538 1538 1538 1538 1538 1538
1473 1477 1485 1491 1481 1471 1473 1471 1469 1473 1483 1488 1490 1491 1484 1481 1481 1483 1485 1489 1493 1496 1500 1503 1507 1511 1514 1517 1520 1522 1525 1527 1529 1531 1532 1533 1534 1535 1536 1537 1537 1537 1537 1537
1474 1479 1478 1473 1468 1467 1469 1470 1470 1473 1475 1484 1484 1484 1482 1481 1481 1483 1486 1490 1493 1497 1500 1504 1506 1509 1512 1515 1518 1520 1523 1525 1527 1529 1530 1532 1533 1534 1535 1535 1535 1536 1536 1536
1476 1481 1479 1479 1471 1469 1470 1469 1469 1470 1471 1474 1478 1481 1477 1478 1481 1484 1488 1491 1495 1499 1501 1503 1505 1507 1510 1513 1516 1518 1521 1523 1525 1527 1529 1530 1531 1532 1533 1533 1534 1534 1535 1535
1478 1483 1487 1486 1476 1475 1480 1471 1469 1470 1467 1472 1480 1479 1476 1479 1481 1486 1489 1493 1496 1499 1500 1502 1504 1506 1508 1510 1513 1516 1518 1521 1523 1525 1527 1528 1529 1530 1531 1532 1532 1533 1533 1533
1483 1486 1486 1486 1486 1499 1479 1464 1465 1468 1468 1469 1473 1475 1477 1480 1484 1487 1490 1493 1496 1498 1500 1501 1503 1505 1506 1508 1511 1513 1516 1518 1520 1522 1524 1525 1527 1528 1529 1529 1530 1530 1531 1531
1480 1486 1488 1488 1490 1486 1474 1467 1468 1472 1475 1474 1476 1477 1478 1480 1484 1489 1491 1493 1496 1498 1500 1501 1502 1503 1505 1506 1508 1511 1513 1515 1517 1519 1521 1522 1524 1525 1526 1527 1527 1528 1528 1529
1477 1481 1489 1488 1495 1496 1480 1469 1468 1471 1481 1478 1479 1480 1482 1483 1486 1491 1493 1494 1496 1498 1499 1499 1500 1501 1502 1504 1506 1508 1510 1512 1514 1516 1517 1519 1521 1522 1523 1524 1525 1525 1526 1527
1481 1483 1488 1490 1492 1486 1475 1471 1471 1485 1488 1482 1482 1484 1485 1487 1490 1493 1493 1494 1496 1497 1498 1498 1499 1500 1501 1502 1504 1505 1508 1509 1511 1513 1515 1516 1518 1519 1521 1522 1522 1523 1523 1524
1478 1482 1487 1488 1494 1492 1477 1476 1481 1485 1483 1484 1485 1486 1488 1489 1491 1492 1493 1494 1495 1496 1496 1497 1498 1499 1500 1501 1502 1503 1505 1507 1509 1510 1512 1513 1514 1516 1518 1519 1519 1520 1521 1522
1473 1477 1478 1483 1487 1483 1482 1483 1484 1485 1485 1486 1487 1488 1489 1490 1491 1492 1493 1494 1494 1495 1496 1496 1497 1498 1498 1499 1500 1501 1502 1504 1506 1508 1509 1510 1512 1513 1514 1515 1516 1517 1518 1519
1473 1475 1478 1482 1482 1484 1484 1485 1486 1486 1485 1486 1487 1488 1489 1490 1490 1491 1492 1493 1493 1494 1494 1495 1495 1496 1497 1498 1499 1499 1500 1501 1503 1505 1506 1507 1509 1510 1511 1512 1513 1514 1515 1516
1479 1479 1479 1482 1484 1484 1485 1487 1487 1486 1486 1486 1487 1488 1489 1489 1490 1490 1491 1491 1492 1492 1492 1493 1493 1494 1495 1495 1496 1497 1498 1499 1501 1503 1504 1505 1506 1507 1508 1509 1510 1511 1512 1512
1483 1485 1486 1486 1487 1487 1486 1487 1488 1488 1487 1487 1487 1487 1488 1488 1489 1489 1489 1489 1489 1490 1490 1491 1491 1492 1493 1493 1494 1495 1496 1497 1499 1500 1501 1502 1504 1505 1505 1506 1507 1507 1508 1508